Noorvik, AK

4:25 PM AKDT on August 31, 2016 (GMT -0800)
Baker Memorial

Weather History for PAIK - September, 2013

Change the Weather History Date:

Sunday, September 22, 2013

  Actual Average (PASK) Record (PASK)
Temperature  
Mean Temperature 31 °F -  
Max Temperature 25 °F 41 °F 57 °F (1999)
Min Temperature 28 °F 31 °F 23 °F (2015)
Degree Days  
Heating Degree Days 34    
Moisture  
Dew Point 26 °F    
Average Humidity 84    
Maximum Humidity 93    
Minimum Humidity 64    
Precipitation  
Precipitation 0.00 in - - ()
Sea Level Pressure  
Sea Level Pressure 29.54 in    
Wind  
Wind Speed 6 mph (NNW)    
Max Wind Speed 12 mph    
Max Gust Speed -    
Visibility 7 miles    
Events Snow    
Averages and records for this station are not official NWS values.
T = Trace of Precipitation, MM = Missing Value Source: NWS Daily Summary

Daily Weather History Graph

Daily Weather History Graph

Search for Another Location

Airport or City:

Trip Planner

Search our weather history database for the weather conditions in past years. The results will help you decide how hot, cold, wet, or windy it might be!

Date:

Astronomy

Sep. 22, 2013 Rise Set
Actual Time 8:25 AM AKDT 8:41 PM AKDT
Civil Twilight 7:31 AM AKDT 9:34 PM AKDT
Nautical Twilight 6:24 AM AKDT 10:40 PM AKDT
Astronomical Twilight 5:03 AM AKDT 12:00 AM AKDT
Moon 8:41 PM AKDT (9/22) 1:51 PM AKDT (9/22)
Length of Visible Light 14h 03m
Length of Day
12h 16m
Waning Gibbous, 87% of the Moon is Illuminated
Sep 22
Waning Gibbous
Sep 26
Last Quarter
Oct 4
New
Oct 11
First Quarter
Oct 18
Full

Hourly Weather History & Observations

Time (AKDT) Temp. Windchill Dew Point Humidity Pressure Visibility Wind Dir Wind Speed Gust Speed Precip Events Conditions
12:01 AM 34.0 °F 26.0 °F 23.0 °F 64% 29.51 in 10.0 mi NNW 10.4 mph - N/A   Overcast
1:01 AM 33.1 °F 24.4 °F 24.1 °F 70% 29.52 in 10.0 mi NW 11.5 mph - N/A   Overcast
2:01 AM 32.0 °F 25.6 °F 24.1 °F 73% 29.53 in 10.0 mi NW 6.9 mph - N/A   Overcast
3:01 AM 32.0 °F 24.2 °F 23.0 °F 69% 29.54 in 10.0 mi NNW 9.2 mph - N/A   Overcast
4:01 AM 32.0 °F 25.6 °F 25.0 °F 75% 29.55 in 9.0 mi NNW 6.9 mph - 0.00 in Snow Light Snow
5:01 AM 30.9 °F 26.2 °F 24.1 °F 76% 29.55 in 10.0 mi NNW 4.6 mph - 0.00 in   Scattered Clouds
6:01 AM 30.9 °F 24.3 °F 23.0 °F 72% 29.56 in 10.0 mi NNW 6.9 mph - N/A   Scattered Clouds
7:01 AM 30.9 °F 23.5 °F 23.0 °F 72% 29.56 in 10.0 mi NNW 8.1 mph - N/A   Overcast
8:01 AM 30.9 °F 24.3 °F 21.9 °F 69% 29.57 in 10.0 mi NW 6.9 mph - N/A   Overcast
9:01 AM 30.9 °F 25.2 °F 23.0 °F 72% 29.57 in 10.0 mi North 5.8 mph - N/A   Overcast
10:01 AM 30.9 °F 27.5 °F 23.0 °F 72% 29.58 in 10.0 mi NNE 3.5 mph - 0.00 in   Overcast
11:01 AM 30.0 °F - 26.1 °F 85% 29.58 in 4.0 mi Calm Calm - 0.00 in Snow Light Snow
12:01 PM 30.0 °F - 26.1 °F 85% 29.59 in 5.0 mi Calm Calm - 0.00 in   Overcast
12:10 PM 30.2 °F - 26.6 °F 86% 29.47 in 3.0 mi Calm Calm - N/A   Overcast
12:19 PM 30.2 °F - 26.6 °F 86% 29.47 in 2.0 mi Calm Calm - 0.00 in Snow Light Snow
12:36 PM 30.2 °F - 28.4 °F 93% 29.47 in 3.0 mi Calm Calm - 0.00 in   Overcast
12:59 PM 30.2 °F - 28.4 °F 93% 29.47 in 2.5 mi Calm Calm - 0.00 in   Overcast
1:01 PM 30.9 °F - 28.0 °F 89% 29.60 in 2.5 mi Calm Calm - 0.00 in   Overcast
1:08 PM 32.0 °F - 28.4 °F 87% 29.47 in 3.0 mi Calm Calm - N/A   Overcast
1:43 PM 32.0 °F - 28.4 °F 87% 29.48 in 2.5 mi Calm Calm - 0.00 in Snow Light Snow
1:51 PM 32.0 °F 27.5 °F 28.4 °F 87% 29.48 in 2.5 mi NW 4.6 mph - 0.00 in Snow Light Snow
1:59 PM 32.0 °F 27.5 °F 28.4 °F 87% 29.48 in 3.0 mi NNW 4.6 mph - 0.00 in Snow Light Snow
2:01 PM 32.0 °F 25.6 °F 28.4 °F 87% 29.48 in 4.0 mi NNW 6.9 mph - 0.00 in Snow Light Snow
2:11 PM 32.0 °F 25.6 °F 28.4 °F 87% 29.48 in 5.0 mi NNW 6.9 mph - 0.00 in Snow Light Snow
2:25 PM 32.0 °F 26.4 °F 28.0 °F 85% 29.60 in 6.0 mi NNW 5.8 mph - 0.00 in Snow Light Snow
2:39 PM 30.2 °F 23.4 °F 28.4 °F 93% 29.48 in 7.0 mi NNW 6.9 mph - 0.00 in Snow Light Snow
2:58 PM 30.2 °F 25.4 °F 28.4 °F 93% 29.48 in 4.0 mi NNW 4.6 mph - 0.00 in Snow Light Snow
3:01 PM 30.2 °F 23.4 °F 28.4 °F 93% 29.48 in 5.0 mi NNW 6.9 mph - 0.00 in Snow Light Snow
3:13 PM 30.2 °F 22.6 °F 28.4 °F 93% 29.48 in 7.0 mi NW 8.1 mph - 0.00 in Snow Light Snow
3:22 PM 30.2 °F 22.6 °F 28.4 °F 93% 29.48 in 7.0 mi NNW 8.1 mph - 0.00 in Snow Light Snow
3:36 PM 30.9 °F 24.3 °F 28.0 °F 89% 29.61 in 7.0 mi NNW 6.9 mph - 0.00 in Snow Light Snow
4:01 PM 30.9 °F 24.3 °F 28.0 °F 89% 29.61 in 9.0 mi NNW 6.9 mph - 0.00 in Snow Light Snow
5:01 PM 32.0 °F 25.6 °F 28.0 °F 85% 29.62 in 10.0 mi NNW 6.9 mph - 0.00 in   Overcast
6:01 PM 32.0 °F 26.4 °F 27.0 °F 82% 29.62 in 10.0 mi NW 5.8 mph - N/A   Overcast
6:34 PM 32.0 °F 27.5 °F 26.6 °F 80% 29.50 in 10.0 mi NNW 4.6 mph - 0.00 in   Overcast
7:01 PM 32.0 °F 26.4 °F 26.6 °F 80% 29.50 in 2.5 mi NNW 5.8 mph - 0.00 in Snow Light Snow
7:07 PM 30.9 °F - 27.0 °F 85% 29.62 in 2.0 mi Calm Calm - 0.00 in Snow Light Snow
7:13 PM 30.2 °F 26.7 °F 26.6 °F 86% 29.50 in 5.0 mi NNW 3.5 mph - 0.00 in Snow Light Snow
7:31 PM 30.2 °F - 26.6 °F 86% 29.50 in 10.0 mi Calm Calm - 0.00 in   Mostly Cloudy
8:01 PM 30.0 °F - 26.1 °F 85% 29.63 in 10.0 mi Calm Calm - 0.00 in   Overcast
8:36 PM 30.2 °F 26.7 °F 26.6 °F 86% 29.51 in 10.0 mi SSW 3.5 mph - 0.00 in   Overcast
9:01 PM 30.0 °F 26.5 °F 27.0 °F 88% 29.64 in 10.0 mi SW 3.5 mph - 0.00 in   Overcast
9:43 PM 28.4 °F - 26.6 °F 93% 29.52 in 10.0 mi Calm Calm - 0.00 in Snow Light Snow
10:01 PM 28.4 °F 24.6 °F 26.6 °F 93% 29.53 in 9.0 mi West 3.5 mph - 0.00 in Snow Light Snow
10:23 PM 28.9 °F - 26.1 °F 89% 29.66 in 10.0 mi Calm Calm - 0.00 in   Overcast
10:39 PM 28.4 °F 24.6 °F 26.6 °F 93% 29.53 in 9.0 mi NE 3.5 mph - 0.00 in Snow Light Snow
10:48 PM 28.4 °F - 26.6 °F 93% 29.53 in 10.0 mi Calm Calm - 0.00 in   Overcast
11:01 PM 28.0 °F - 26.1 °F 92% 29.67 in 9.0 mi Calm Calm - 0.00 in Snow Light Snow